Wind_Speed
42 42 43 43 43 43 44 44 44 44 45 46 46 47 47 47 48 48 47 47 47 47 47 47 47 48 48 49 50 51 51 52 52 52 53 53 53 54 55 55 56 59 61 60 58 57 59 61 60 57 56 55 56 56 56 56 56 57 58 59 60 60 60
46 46 46 46 46 47 47 47 48 48 48 49 49 49 50 50 50 51 50 50 50 49 50 49 49 49 50 51 52 53 54 55 55 56 56 56 56 57 57 57 58 59 61 62 61 60 60 62 63 60 59 58 58 58 57 57 58 58 59 61 61 61 61
50 50 50 51 51 51 51 52 52 52 53 53 53 54 54 55 55 55 55 55 55 54 55 55 54 54 54 55 55 55 56 57 59 59 59 59 59 59 60 60 60 61 62 63 62 61 62 64 64 62 61 61 60 59 60 60 60 60 61 62 63 64 64
53 54 54 55 55 56 56 56 57 57 57 58 58 59 59 59 59 59 59 59 59 60 60 60 59 58 58 58 58 57 57 59 60 61 62 62 62 62 62 63 63 63 63 64 64 63 63 65 66 65 64 63 63 62 63 63 63 63 64 65 65 66 66
52 53 53 54 54 55 55 55 55 56 56 56 57 58 58 59 59 59 59 59 59 59 60 60 60 59 58 59 59 59 59 59 61 62 63 63 64 64 64 64 65 65 65 65 65 65 64 65 67 68 67 66 65 65 66 66 66 66 66 67 67 67 68
49 49 50 51 51 51 51 51 51 51 52 52 53 54 54 55 56 56 57 57 57 57 57 57 57 57 58 58 59 59 60 61 62 63 63 64 64 65 65 66 66 66 66 66 66 65 65 66 67 69 70 69 68 67 68 68 68 68 68 69 69 68 68
47 47 47 48 48 49 49 49 49 49 50 50 50 51 51 51 52 52 53 53 54 54 54 55 55 55 56 57 57 58 59 60 62 63 64 64 64 65 65 66 66 66 66 66 65 64 64 64 65 67 68 69 69 68 68 69 69 69 69 69 69 68 68
46 46 46 47 47 47 48 48 49 49 48 49 48 48 49 49 49 49 49 50 50 51 52 53 53 54 54 55 55 56 57 58 59 61 62 62 63 63 64 64 64 64 64 64 63 63 63 62 63 65 66 67 68 69 68 68 68 68 67 67 66 66 65
46 45 46 46 46 47 47 47 47 47 47 47 48 48 48 47 48 48 48 49 49 50 50 51 52 52 52 53 53 54 55 56 56 58 59 59 60 60 61 61 61 61 61 61 61 61 61 60 61 63 64 65 66 67 65 64 64 63 63 63 63 63 63
45 45 45 45 46 46 46 46 46 46 46 46 47 47 47 47 47 48 48 49 49 49 49 50 50 51 52 52 53 53 54 54 55 56 57 57 57 57 58 58 59 59 58 58 59 59 58 59 60 59 61 62 61 61 61 61 61 61 61 61 61 62 61
43 44 44 44 44 45 45 45 46 46 46 46 46 46 47 47 47 47 48 48 48 48 48 48 49 50 51 52 53 54 54 54 55 55 55 56 56 56 56 57 58 58 58 58 58 58 57 59 59 57 58 59 58 58 60 60 60 60 60 61 62 62 61
42 42 42 42 43 43 44 44 44 44 45 45 45 46 47 47 47 48 47 47 47 47 48 48 48 48 49 50 52 53 54 54 55 55 55 56 56 56 56 57 57 58 58 58 58 59 59 59 59 57 58 58 57 57 59 60 60 60 60 61 62 61 61
40 40 41 41 41 41 42 42 42 42 43 43 43 44 46 46 46 46 46 46 46 47 47 48 48 48 48 48 49 50 51 52 53 54 55 55 56 56 56 57 57 57 58 58 58 60 60 59 59 59 58 58 57 58 59 60 59 59 60 61 61 60 60
37 38 39 39 39 39 39 40 40 40 40 41 41 42 44 44 43 43 44 44 45 45 46 46 47 48 48 48 48 48 49 50 50 51 53 53 54 55 56 56 57 57 57 58 59 60 60 58 58 59 58 57 57 59 59 59 59 58 59 59 58 57 58
35 35 36 36 36 36 37 37 37 37 38 38 39 40 41 42 40 40 41 42 43 44 44 45 45 46 47 47 47 47 47 48 49 50 51 52 52 53 54 55 56 56 57 58 58 59 60 58 58 58 57 56 57 58 58 58 58 57 58 58 58 58 60
33 33 33 33 33 33 33 34 34 34 35 35 36 37 38 38 38 38 38 39 40 41 42 43 43 43 44 44 45 45 46 46 47 48 50 50 51 52 53 54 54 54 55 56 57 57 58 58 57 57 56 56 57 58 58 57 57 57 57 58 59 60 61
30 30 30 30 30 30 30 30 31 32 32 33 34 34 35 36 36 36 36 37 38 39 40 40 40 41 42 42 43 43 44 44 45 47 48 49 50 51 52 53 53 53 54 55 55 55 55 56 56 55 55 55 56 57 57 56 58 58 58 58 59 60 60
27 28 28 28 28 27 28 28 29 30 31 31 32 33 34 35 35 35 35 36 38 38 38 37 38 39 41 42 42 43 43 44 45 46 46 48 49 50 51 52 52 53 54 54 54 54 54 54 55 55 55 54 54 55 56 57 57 57 57 58 59 59 59
25 26 26 26 26 26 27 27 28 29 29 30 31 32 33 34 35 36 36 37 37 36 35 35 36 37 39 40 41 42 43 43 44 46 47 48 49 50 51 52 52 52 53 52 53 53 53 53 53 53 54 53 53 54 56 58 57 56 56 57 58 57 58
23 24 25 25 25 26 26 27 27 28 28 29 30 32 34 35 36 37 38 39 37 34 34 35 36 36 37 38 40 41 43 43 45 47 48 47 47 49 51 52 51 50 49 49 50 50 51 51 51 52 52 52 52 52 54 57 57 56 56 57 56 56 57
22 23 23 24 25 26 27 28 27 27 28 30 31 32 34 35 37 38 39 39 37 35 36 36 36 36 37 38 40 41 42 44 45 46 46 45 46 49 51 51 49 48 48 47 47 47 47 48 49 50 51 51 51 51 51 53 56 57 56 55 55 56 56
21 22 23 23 25 27 28 28 27 27 29 30 31 32 33 35 37 38 37 37 37 37 37 37 38 38 38 39 40 41 43 44 44 45 45 46 47 48 49 48 48 49 48 48 47 46 46 46 46 47 48 49 51 51 50 50 54 56 56 54 54 54 55
21 21 22 23 25 27 28 28 28 28 29 30 31 32 33 36 38 37 36 38 39 39 39 39 40 41 41 41 42 42 43 44 44 45 45 46 46 46 47 48 48 48 48 48 48 47 47 47 46 46 46 47 49 50 50 50 51 53 54 54 53 52 52
20 20 21 22 24 26 26 26 27 29 31 32 32 33 34 36 37 37 37 38 39 40 41 42 43 43 43 43 43 44 44 45 45 46 46 46 46 46 47 47 48 48 48 48 48 48 48 48 47 47 46 46 46 48 49 50 51 52 52 53 52 51 50
20 19 20 22 23 24 25 26 27 30 32 34 35 35 34 35 36 36 37 38 39 41 42 43 44 44 45 45 45 46 46 46 47 48 48 48 48 47 47 48 48 49 49 49 49 48 48 48 48 48 48 47 47 47 47 49 50 51 52 53 53 52 50
21 19 20 22 23 24 25 26 27 30 32 34 36 37 35 34 36 36 36 37 39 41 42 42 43 44 45 45 46 46 47 47 48 48 49 50 50 50 50 50 49 49 49 50 50 50 49 49 50 50 50 50 49 48 47 47 48 50 52 53 54 54 53
22 21 21 23 24 25 26 26 27 30 32 33 36 36 34 35 37 36 34 35 37 39 39 40 41 42 43 44 44 45 46 47 47 48 48 49 50 51 51 52 52 52 51 51 51 51 51 51 51 51 51 52 52 51 49 48 48 49 50 52 53 54 54
24 22 22 24 25 25 26 26 27 29 30 32 34 33 33 35 35 33 32 34 35 36 37 38 39 40 41 42 43 44 44 45 46 46 47 48 48 49 50 51 52 52 53 53 52 52 52 52 52 52 52 52 54 54 53 52 51 51 51 51 52 54 54
25 24 24 25 26 26 25 26 27 28 29 30 30 30 31 33 32 31 31 33 34 34 36 36 37 38 39 40 41 41 42 43 43 44 44 45 46 48 49 50 51 52 52 53 53 53 53 53 53 53 53 53 54 55 56 55 55 54 53 53 53 54 54
27 27 26 26 26 26 26 26 27 27 27 28 28 28 29 31 30 30 31 32 33 33 34 35 36 36 37 38 38 38 39 39 40 40 40 41 42 43 45 47 49 50 51 52 52 53 54 54 54 54 54 54 54 55 57 57 57 57 57 56 56 56 55
27 28 27 27 27 26 26 26 26 26 26 25 25 25 27 28 29 29 30 31 31 32 32 33 33 34 34 35 35 36 36 36 36 37 37 37 37 38 39 41 43 45 47 49 51 52 53 53 54 54 54 55 55 55 56 57 57 59 59 59 59 59 58
25 27 27 27 26 25 24 23 22 22 23 23 24 24 25 27 27 28 28 29 29 29 29 30 30 31 31 31 32 32 33 33 34 34 34 34 34 34 35 36 37 39 41 44 46 48 50 51 53 54 54 55 55 55 56 56 57 58 59 59 59 60 60
23 24 25 25 24 23 21 20 19 19 20 22 23 24 24 25 24 24 25 25 26 26 27 28 29 29 29 30 30 30 30 30 31 31 31 31 31 31 32 32 33 34 35 37 40 42 45 47 50 51 53 54 54 55 56 56 56 57 58 58 58 59 59
21 22 22 22 21 19 18 17 17 18 20 22 23 23 22 22 22 22 22 23 25 25 26 27 27 28 29 29 29 29 29 29 29 29 29 29 29 29 29 29 30 30 31 32 34 36 39 41 44 46 49 51 52 53 54 55 55 56 56 56 56 56 56
19 19 19 18 16 15 14 15 16 17 19 20 20 20 20 20 21 22 22 23 24 24 25 26 27 27 28 29 29 29 29 29 29 28 28 28 28 28 28 28 28 28 28 29 30 31 33 35 37 40 43 45 48 49 51 53 54 55 55 55 55 55 54
17 16 15 13 11 11 12 13 14 16 17 17 17 17 18 18 19 20 21 21 22 23 24 25 26 27 28 28 29 29 29 30 29 29 28 28 28 27 27 27 26 26 25 26 26 27 29 30 32 34 36 39 42 44 46 49 51 52 53 54 54 54 53
Wind_Direction
262 262 261 261 261 261 261 261 262 262 262 262 263 263 263 263 263 263 263 263 264 264 264 263 264 264 264 265 265 265 265 266 265 265 264 264 264 264 264 264 264 266 266 266 267 267 267 267 265 262 261 259 258 258 257 257 258 258 258 258 258 258 258
263 262 261 261 261 261 262 262 263 263 263 263 263 263 263 263 264 264 263 263 263 264 265 265 265 265 266 266 266 265 266 265 265 264 264 264 263 263 263 263 264 265 265 265 266 266 266 266 266 265 263 261 259 259 258 257 257 257 257 257 258 258 258
265 264 264 263 262 262 262 263 263 263 263 264 264 264 264 265 265 265 265 264 264 265 265 266 266 267 267 267 266 266 265 264 263 263 263 263 263 263 263 263 263 264 264 265 265 265 265 265 265 264 263 262 261 260 259 258 257 257 257 257 257 257 257
266 266 265 264 264 263 263 263 263 263 263 264 264 265 265 265 265 265 265 265 265 265 266 267 267 267 267 266 266 265 264 263 262 261 261 261 261 262 262 262 262 262 263 263 262 262 263 264 264 263 262 262 262 261 260 259 258 258 257 257 257 257 257
269 268 268 268 267 267 266 266 266 266 265 266 266 265 266 266 266 266 266 266 266 266 266 266 266 266 266 265 265 265 264 263 261 260 260 260 260 260 261 261 261 261 261 261 261 261 261 262 263 263 262 261 261 262 261 260 260 259 259 258 258 257 257
271 271 270 270 271 271 270 270 270 269 269 269 268 268 268 267 267 267 266 266 266 266 266 266 266 265 264 264 264 264 264 263 262 261 261 261 261 261 261 261 262 262 262 262 262 262 262 262 262 263 263 263 262 262 262 262 261 261 260 259 259 258 258
272 271 271 270 270 270 270 270 270 269 269 269 268 268 268 268 267 267 266 266 266 266 266 266 266 265 264 264 263 263 262 262 262 262 262 262 263 263 263 263 264 264 264 265 264 264 263 263 262 262 263 263 263 262 262 262 262 261 261 261 261 260 260
270 270 270 270 269 269 269 268 268 268 268 268 268 268 267 267 267 267 267 266 266 266 266 266 266 266 266 265 264 263 263 262 262 263 263 262 262 263 263 263 264 264 265 265 265 264 264 263 262 262 262 262 262 262 262 262 263 263 263 263 263 262 262
272 271 270 270 270 270 270 269 269 269 269 269 268 268 268 268 268 268 268 267 267 267 267 267 267 267 267 267 267 266 265 264 263 264 264 263 263 263 262 262 262 262 263 263 263 263 262 262 261 261 261 261 262 263 263 263 263 263 263 263 262 262 261
273 273 272 271 271 271 271 271 271 271 270 270 270 269 269 269 269 269 269 269 268 268 268 268 268 268 268 268 268 267 267 266 265 265 266 266 265 265 264 264 263 262 262 262 262 262 261 261 260 260 260 261 261 262 263 263 263 262 262 262 261 260 259
275 274 274 273 272 272 272 271 271 272 272 272 272 271 270 270 270 270 270 270 269 269 268 267 267 267 267 267 267 267 267 266 266 266 266 266 266 266 266 266 265 264 263 262 262 261 261 260 260 260 260 260 260 261 261 261 262 262 261 261 261 260 260
276 275 275 274 274 273 272 272 271 271 271 271 272 272 271 271 271 271 271 270 270 270 269 268 268 267 266 266 266 265 265 265 265 265 265 265 265 265 265 265 265 265 265 264 263 262 261 260 261 260 260 260 260 260 261 261 261 261 261 260 260 260 260
276 276 276 275 275 274 273 272 272 271 271 271 271 271 270 270 271 271 271 271 271 270 270 270 269 268 268 266 266 265 264 264 263 263 263 263 263 263 263 263 263 264 264 264 263 262 261 261 261 260 259 259 260 259 259 259 259 259 259 259 260 260 261
277 276 276 276 276 275 275 274 273 273 272 272 272 272 271 271 271 272 272 271 271 271 271 270 270 270 269 269 268 268 267 266 265 264 263 262 262 262 261 261 261 261 262 262 262 262 262 261 261 260 259 259 259 258 257 258 258 258 259 259 259 259 258
278 278 277 277 276 276 276 275 275 274 274 273 273 273 273 273 273 273 273 273 272 272 272 272 272 272 272 272 272 271 271 270 268 267 265 264 263 262 261 261 260 260 260 260 260 261 261 260 260 260 259 258 258 257 257 257 257 257 257 257 256 254 253
279 279 278 277 277 276 276 277 276 276 276 275 275 275 275 275 274 275 275 275 274 274 274 274 274 274 275 275 275 274 274 273 272 270 269 268 266 265 264 262 262 261 260 259 259 259 260 260 259 259 259 258 258 258 257 256 256 255 254 254 253 253 253
280 280 279 279 278 278 278 278 278 278 278 277 277 277 277 276 276 276 276 276 275 275 276 276 277 277 277 276 276 276 275 275 274 273 272 271 270 268 267 265 264 262 260 260 259 258 259 259 258 258 258 258 257 257 256 255 254 254 253 253 253 252 253
281 281 281 280 280 280 280 280 279 279 279 279 279 279 278 278 277 277 276 276 275 276 277 278 279 279 278 277 276 276 275 275 274 274 273 272 271 270 268 267 265 263 261 260 259 257 257 257 257 256 256 256 256 256 255 254 253 253 253 253 252 253 253
281 281 281 281 281 281 281 280 280 280 280 281 281 281 280 279 279 279 278 277 277 279 281 280 280 279 279 278 278 277 275 274 273 272 270 270 270 269 269 268 267 265 264 262 260 259 257 256 255 255 255 254 254 254 254 253 253 252 252 252 252 252 252
282 282 283 283 283 283 283 282 282 283 283 284 283 283 283 283 283 282 281 281 282 284 284 282 280 280 279 278 278 276 275 274 273 272 272 272 271 270 270 269 269 269 268 266 264 262 259 257 255 254 253 253 253 253 253 254 253 252 251 251 251 251 250
285 285 286 287 287 287 285 285 286 286 287 286 285 285 285 285 284 284 284 286 288 288 285 283 282 280 278 277 276 275 274 274 274 274 274 273 272 271 270 271 271 270 269 267 265 263 261 258 256 254 252 251 251 251 251 253 254 252 251 250 250 250 250
288 289 290 291 290 289 288 289 290 290 289 288 287 287 287 287 286 287 290 292 291 289 288 286 283 281 278 276 275 275 275 275 275 275 274 273 273 272 272 272 271 270 268 267 265 263 261 259 257 254 252 251 250 250 249 250 253 254 253 251 249 249 249
291 292 293 293 292 291 291 294 295 294 292 291 291 291 291 290 291 293 295 294 292 291 289 287 284 282 281 279 278 277 276 276 275 275 274 274 274 273 273 272 271 270 269 268 266 264 262 259 257 255 253 251 250 250 249 248 250 253 254 254 252 250 250
293 294 295 294 292 293 295 297 298 297 296 295 294 293 293 293 294 296 295 293 292 290 289 287 286 285 284 282 281 279 277 276 276 275 274 273 272 272 271 270 270 269 268 267 266 265 263 261 259 256 254 251 250 249 248 248 248 249 251 253 253 252 251
296 297 297 294 294 295 297 298 298 296 295 295 294 293 293 294 295 295 294 292 291 290 289 289 288 287 286 285 283 281 280 278 277 276 275 274 273 271 270 269 268 267 267 266 265 263 262 261 260 258 256 253 250 248 247 247 246 246 247 248 250 251 250
299 301 300 297 297 297 298 298 297 294 294 295 294 294 296 296 294 292 292 291 290 289 289 288 287 287 286 285 284 282 281 279 278 277 276 275 274 273 272 270 268 266 265 264 263 262 261 260 258 258 257 256 253 251 248 246 246 246 246 247 248 249 249
302 305 304 301 300 299 299 299 297 296 296 296 295 297 300 297 293 293 294 293 291 290 289 288 288 287 286 284 283 282 281 279 278 276 275 274 273 272 272 271 270 268 266 264 262 261 260 259 257 256 256 255 255 253 250 247 246 245 246 248 249 250 250
303 306 305 302 301 302 303 303 302 301 300 299 299 302 302 298 297 300 300 296 294 293 292 291 290 289 288 286 285 283 282 280 279 277 275 273 271 270 269 268 268 268 267 265 263 261 260 258 257 256 254 253 253 253 252 249 247 245 245 246 248 250 251
304 306 307 306 306 308 310 310 309 308 307 306 307 308 306 304 305 307 305 302 300 299 298 297 296 295 293 292 291 289 287 285 283 281 279 276 274 271 269 267 266 265 264 264 263 262 260 258 256 255 254 252 251 251 250 250 248 246 245 244 244 246 249
308 311 313 313 314 316 317 317 316 315 314 313 314 313 311 311 313 313 310 308 308 306 306 305 304 302 301 299 298 296 294 292 290 287 284 282 279 276 273 270 268 266 264 263 262 260 260 258 256 255 253 252 250 249 249 248 248 247 246 244 243 243 244
314 315 317 318 319 320 321 321 320 319 318 319 319 318 317 317 317 317 316 316 315 314 314 313 311 310 308 306 304 302 300 298 296 293 291 288 284 281 277 274 271 269 267 265 263 261 260 258 257 255 253 251 250 249 248 248 248 247 247 245 244 243 243
315 316 317 318 319 322 323 323 323 323 323 323 323 324 323 323 323 324 324 323 323 323 323 323 322 321 319 317 315 312 309 307 304 301 298 295 291 287 284 280 276 273 270 268 266 264 262 259 257 256 254 252 250 249 248 247 247 247 247 246 246 245 244
314 314 316 318 320 323 325 327 329 329 329 328 329 330 330 330 332 333 333 333 335 336 336 336 335 334 332 330 327 324 320 317 313 309 306 303 299 296 292 288 283 279 275 272 269 267 264 262 260 258 256 253 251 249 248 247 246 247 247 247 246 246 245
314 314 316 319 322 326 329 333 335 335 335 335 335 336 338 339 341 344 346 347 348 348 346 345 343 342 341 339 336 334 330 327 323 319 315 312 308 304 301 297 292 288 283 279 275 271 268 265 263 260 258 256 253 251 249 247 246 246 247 247 246 246 245
314 316 318 320 324 328 331 335 338 340 341 342 342 343 346 348 351 353 355 355 354 353 352 351 350 349 347 345 343 341 338 335 331 328 324 321 317 314 310 306 302 298 293 288 283 278 273 270 266 263 261 258 256 253 250 248 247 246 246 246 246 245 245
315 316 317 319 324 330 334 340 345 347 349 349 350 352 354 355 356 357 358 358 358 358 358 358 357 355 354 352 350 347 345 342 339 336 333 330 326 323 319 316 313 309 304 298 293 287 281 276 272 268 264 261 258 255 252 250 247 245 244 244 245 245 244
Height
2954 2953 2953 2953 2953 2953 2953 2953 2953 2953 2953 2953 2952 2952 2952 2952 2952 2952 2952 2951 2951 2951 2950 2950 2950 2950 2951 2951 2950 2952 2952 2952 2952 2951 2951 2952 2951 2951 2951 2951 2949 2947 2950 2953 2952 2954 2953 2952 2955 2960 2961 2962 2962 2963 2965 2965 2965 2966 2966 2966 2967 2968 2970
2947 2947 2947 2946 2946 2946 2946 2946 2946 2945 2945 2945 2945 2945 2945 2945 2945 2944 2945 2944 2944 2944 2943 2943 2944 2944 2944 2943 2943 2944 2944 2944 2944 2943 2944 2944 2943 2943 2943 2943 2942 2941 2942 2945 2945 2945 2945 2944 2945 2949 2951 2952 2954 2955 2956 2957 2957 2957 2958 2958 2958 2960 2961
2940 2939 2939 2939 2939 2939 2939 2938 2938 2938 2938 2937 2937 2937 2937 2937 2937 2937 2937 2937 2937 2937 2936 2935 2936 2937 2936 2935 2935 2937 2937 2936 2935 2935 2936 2936 2936 2936 2936 2935 2935 2934 2934 2936 2938 2938 2937 2936 2936 2940 2941 2942 2944 2946 2946 2947 2948 2949 2949 2950 2950 2951 2952
2932 2931 2931 2931 2931 2931 2931 2930 2930 2930 2930 2929 2929 2929 2929 2928 2928 2928 2928 2928 2928 2928 2927 2926 2927 2929 2928 2926 2926 2928 2928 2927 2927 2927 2927 2928 2928 2927 2928 2928 2926 2926 2927 2927 2929 2930 2930 2928 2927 2930 2932 2932 2934 2935 2936 2937 2938 2939 2940 2941 2941 2942 2943
2924 2923 2923 2922 2922 2922 2921 2921 2921 2921 2920 2920 2919 2919 2919 2919 2918 2919 2919 2919 2919 2919 2918 2917 2918 2920 2918 2917 2917 2918 2919 2918 2918 2918 2917 2918 2919 2919 2919 2919 2917 2918 2919 2918 2919 2922 2922 2921 2919 2919 2921 2923 2924 2925 2925 2927 2928 2929 2930 2931 2932 2933 2934
2916 2915 2915 2914 2913 2913 2912 2912 2912 2911 2911 2911 2910 2910 2910 2909 2910 2910 2910 2910 2910 2909 2908 2908 2909 2910 2909 2908 2908 2909 2910 2910 2908 2908 2908 2908 2910 2910 2909 2909 2908 2909 2909 2908 2910 2913 2913 2913 2911 2910 2910 2912 2914 2915 2914 2916 2918 2918 2919 2920 2921 2923 2924
2908 2907 2907 2906 2906 2905 2905 2904 2904 2903 2903 2902 2902 2902 2901 2901 2901 2901 2902 2902 2901 2900 2900 2899 2899 2900 2900 2899 2899 2900 2901 2900 2899 2899 2899 2899 2900 2900 2899 2899 2898 2899 2899 2899 2901 2902 2903 2904 2904 2903 2902 2903 2903 2904 2904 2906 2906 2906 2908 2910 2911 2913 2915
2901 2900 2900 2899 2898 2898 2897 2897 2896 2896 2895 2894 2894 2894 2894 2894 2894 2894 2893 2893 2893 2892 2891 2891 2891 2891 2891 2891 2890 2891 2891 2891 2891 2890 2889 2890 2891 2891 2890 2889 2889 2889 2889 2889 2891 2892 2893 2894 2894 2894 2894 2894 2893 2893 2895 2897 2896 2897 2899 2901 2902 2904 2906
2893 2893 2893 2892 2891 2890 2890 2889 2889 2888 2887 2887 2886 2886 2886 2886 2886 2885 2885 2884 2884 2884 2883 2883 2883 2883 2883 2882 2882 2882 2882 2882 2882 2881 2880 2881 2882 2881 2880 2880 2880 2880 2880 2880 2880 2881 2883 2884 2883 2885 2886 2885 2884 2885 2887 2888 2888 2888 2890 2891 2892 2893 2895
2886 2885 2885 2884 2884 2883 2882 2882 2881 2880 2879 2879 2878 2878 2878 2878 2877 2877 2876 2876 2876 2875 2875 2875 2874 2874 2874 2874 2873 2872 2872 2872 2873 2872 2871 2872 2872 2872 2871 2870 2870 2870 2871 2871 2870 2872 2873 2872 2872 2876 2877 2876 2877 2879 2878 2878 2878 2879 2881 2881 2882 2882 2885
2879 2878 2878 2877 2876 2876 2875 2874 2874 2873 2872 2871 2870 2869 2869 2870 2870 2869 2868 2868 2867 2867 2867 2867 2867 2867 2866 2865 2864 2864 2863 2863 2863 2863 2862 2862 2863 2862 2862 2861 2861 2861 2862 2862 2861 2862 2863 2862 2862 2867 2868 2867 2869 2870 2869 2869 2870 2870 2871 2872 2871 2872 2875
2873 2872 2871 2871 2870 2869 2868 2868 2867 2866 2865 2864 2863 2861 2862 2862 2862 2861 2861 2860 2860 2859 2859 2859 2859 2859 2858 2858 2857 2856 2856 2855 2855 2855 2854 2854 2854 2854 2854 2853 2852 2852 2853 2853 2852 2853 2853 2853 2854 2858 2859 2859 2861 2862 2860 2860 2861 2861 2862 2862 2862 2864 2866
2867 2866 2865 2865 2863 2862 2862 2861 2860 2859 2858 2858 2856 2855 2855 2856 2855 2854 2853 2853 2852 2852 2851 2851 2851 2851 2850 2850 2849 2848 2848 2847 2847 2847 2847 2846 2846 2845 2846 2845 2845 2845 2844 2844 2844 2843 2843 2846 2847 2847 2849 2852 2853 2852 2851 2851 2852 2853 2853 2852 2854 2857 2858
2861 2860 2859 2859 2857 2856 2855 2854 2853 2853 2852 2851 2850 2848 2848 2849 2849 2847 2846 2845 2845 2844 2844 2843 2843 2842 2842 2841 2841 2840 2839 2839 2839 2838 2838 2838 2838 2837 2838 2837 2837 2837 2837 2836 2835 2834 2835 2839 2839 2838 2841 2844 2843 2842 2842 2842 2843 2845 2844 2844 2847 2849 2849
2855 2854 2853 2852 2851 2850 2849 2848 2847 2846 2845 2845 2843 2842 2842 2843 2842 2841 2839 2839 2838 2837 2836 2836 2835 2834 2833 2833 2833 2832 2831 2831 2830 2829 2829 2829 2829 2829 2829 2828 2828 2829 2829 2828 2827 2825 2826 2830 2831 2830 2833 2835 2833 2832 2834 2835 2836 2837 2836 2835 2837 2838 2837
2849 2848 2847 2846 2845 2844 2844 2843 2841 2840 2840 2839 2837 2837 2836 2836 2835 2835 2833 2832 2831 2830 2830 2829 2828 2827 2826 2826 2825 2824 2823 2822 2821 2820 2820 2820 2820 2820 2819 2819 2820 2821 2820 2819 2819 2818 2818 2820 2822 2822 2823 2824 2823 2823 2825 2827 2827 2827 2826 2826 2827 2828 2828
2843 2842 2842 2841 2840 2840 2839 2838 2836 2835 2834 2833 2832 2831 2831 2830 2829 2829 2828 2826 2825 2824 2824 2823 2822 2821 2820 2819 2818 2817 2816 2814 2813 2812 2812 2812 2812 2811 2811 2811 2812 2812 2811 2811 2811 2811 2810 2811 2813 2813 2814 2815 2814 2814 2816 2816 2816 2817 2818 2818 2818 2819 2821
2838 2837 2837 2836 2836 2835 2834 2833 2832 2831 2829 2828 2827 2826 2826 2825 2824 2823 2822 2821 2820 2819 2819 2818 2816 2815 2814 2813 2812 2811 2809 2808 2806 2805 2805 2804 2803 2802 2802 2802 2803 2802 2802 2802 2802 2802 2802 2803 2804 2804 2805 2806 2805 2805 2806 2806 2806 2809 2811 2809 2809 2813 2815
2834 2833 2832 2832 2831 2830 2830 2828 2827 2826 2825 2824 2823 2821 2820 2819 2818 2817 2816 2815 2815 2814 2814 2813 2811 2810 2808 2806 2805 2804 2802 2801 2799 2797 2797 2796 2795 2794 2793 2793 2794 2794 2794 2794 2794 2795 2795 2795 2795 2796 2796 2796 2797 2797 2796 2796 2799 2801 2801 2801 2803 2806 2806
2831 2830 2829 2828 2827 2826 2825 2824 2823 2822 2821 2819 2818 2816 2814 2813 2812 2811 2809 2808 2809 2809 2808 2806 2805 2804 2802 2801 2799 2796 2795 2793 2791 2789 2789 2789 2788 2786 2785 2785 2786 2786 2786 2787 2787 2787 2787 2787 2788 2788 2788 2788 2789 2789 2788 2788 2791 2792 2793 2794 2796 2797 2797
2827 2826 2825 2824 2823 2821 2820 2819 2819 2818 2816 2815 2813 2811 2810 2808 2806 2804 2803 2803 2803 2803 2801 2800 2799 2797 2796 2794 2792 2790 2788 2786 2784 2783 2783 2782 2780 2779 2778 2778 2779 2779 2778 2778 2779 2779 2779 2780 2780 2780 2780 2780 2781 2782 2782 2781 2781 2783 2785 2787 2788 2789 2790
2823 2822 2821 2820 2818 2816 2815 2814 2814 2813 2811 2810 2808 2806 2805 2802 2800 2799 2799 2797 2796 2795 2794 2792 2791 2789 2788 2787 2785 2783 2781 2780 2778 2777 2776 2774 2773 2772 2772 2772 2771 2770 2770 2770 2770 2771 2771 2772 2772 2772 2773 2773 2773 2774 2776 2775 2774 2774 2776 2779 2781 2781 2782
2819 2818 2817 2815 2814 2812 2810 2810 2808 2807 2805 2804 2802 2801 2799 2796 2794 2794 2794 2791 2789 2788 2786 2785 2783 2781 2781 2780 2778 2777 2775 2773 2772 2771 2769 2767 2767 2766 2765 2764 2763 2762 2762 2762 2762 2762 2763 2763 2764 2764 2765 2766 2766 2767 2768 2768 2768 2768 2769 2770 2773 2775 2776
2815 2815 2813 2811 2809 2808 2806 2805 2803 2801 2799 2797 2796 2795 2794 2791 2790 2789 2788 2785 2783 2780 2778 2777 2775 2774 2773 2772 2770 2769 2768 2766 2764 2763 2761 2760 2760 2759 2757 2756 2755 2755 2754 2754 2754 2754 2754 2755 2755 2756 2757 2758 2759 2759 2760 2761 2761 2762 2762 2763 2764 2767 2769
2811 2811 2810 2808 2806 2804 2802 2801 2799 2796 2794 2792 2790 2790 2789 2787 2786 2784 2782 2779 2776 2774 2772 2770 2768 2766 2765 2763 2762 2760 2759 2758 2757 2755 2754 2753 2752 2751 2750 2749 2748 2747 2746 2746 2746 2746 2746 2746 2746 2747 2748 2749 2750 2751 2752 2753 2754 2755 2755 2756 2757 2758 2760
2807 2807 2806 2803 2802 2800 2799 2798 2795 2792 2790 2787 2785 2784 2784 2782 2780 2778 2776 2774 2771 2768 2766 2763 2761 2759 2757 2755 2754 2752 2751 2749 2748 2747 2746 2744 2743 2742 2741 2740 2740 2739 2738 2738 2737 2738 2738 2738 2738 2738 2739 2740 2741 2743 2745 2746 2747 2748 2748 2749 2749 2750 2751
2802 2802 2801 2799 2798 2796 2795 2794 2791 2788 2786 2783 2780 2779 2778 2775 2773 2772 2771 2768 2765 2762 2760 2758 2755 2753 2751 2749 2746 2744 2742 2741 2739 2738 2737 2736 2735 2733 2732 2731 2730 2730 2729 2729 2729 2729 2729 2729 2730 2731 2731 2732 2732 2734 2736 2738 2739 2740 2741 2742 2743 2743 2743
2798 2798 2797 2795 2794 2793 2791 2789 2787 2784 2782 2779 2776 2775 2772 2768 2767 2767 2765 2761 2759 2756 2754 2751 2749 2746 2744 2741 2739 2737 2735 2733 2731 2729 2728 2727 2726 2725 2724 2722 2721 2720 2719 2719 2720 2720 2720 2721 2721 2722 2723 2724 2724 2725 2727 2729 2730 2732 2733 2735 2735 2735 2735
2794 2793 2793 2791 2789 2788 2786 2784 2782 2780 2777 2774 2772 2770 2766 2763 2762 2761 2758 2755 2753 2750 2748 2745 2742 2740 2737 2734 2732 2729 2727 2725 2723 2721 2719 2718 2717 2715 2714 2713 2712 2711 2710 2710 2710 2710 2710 2711 2712 2713 2714 2715 2715 2716 2718 2719 2721 2722 2725 2726 2727 2727 2728
2789 2788 2787 2786 2784 2782 2781 2779 2776 2774 2772 2769 2767 2765 2761 2758 2757 2755 2753 2750 2747 2745 2742 2739 2736 2734 2731 2728 2725 2723 2720 2718 2716 2714 2712 2710 2708 2707 2705 2704 2703 2702 2701 2701 2700 2700 2700 2701 2702 2703 2704 2705 2706 2707 2708 2710 2711 2713 2715 2717 2718 2719 2721
2784 2782 2781 2780 2779 2778 2776 2774 2772 2769 2767 2765 2763 2761 2758 2756 2753 2751 2748 2746 2743 2740 2737 2734 2731 2729 2726 2723 2720 2717 2714 2711 2709 2706 2705 2703 2701 2699 2698 2696 2695 2693 2692 2692 2691 2690 2691 2691 2691 2692 2693 2695 2696 2697 2699 2701 2703 2703 2705 2707 2709 2710 2713
2781 2779 2777 2776 2775 2774 2773 2771 2769 2766 2764 2762 2760 2758 2756 2753 2750 2748 2745 2742 2739 2736 2733 2730 2727 2724 2721 2718 2714 2711 2708 2705 2703 2700 2698 2696 2694 2692 2690 2689 2688 2686 2685 2683 2682 2682 2682 2681 2681 2682 2683 2685 2686 2688 2689 2691 2693 2693 2695 2697 2699 2701 2704
2779 2777 2775 2774 2772 2771 2769 2768 2766 2764 2762 2759 2757 2755 2753 2750 2748 2745 2743 2740 2737 2733 2730 2727 2723 2720 2717 2714 2710 2707 2704 2701 2698 2695 2692 2690 2688 2686 2684 2682 2681 2679 2678 2676 2675 2674 2673 2673 2673 2673 2674 2675 2677 2678 2680 2682 2683 2684 2685 2688 2689 2691 2694
2777 2775 2773 2771 2770 2768 2767 2765 2764 2762 2760 2757 2754 2752 2750 2748 2746 2743 2740 2737 2734 2731 2728 2725 2721 2718 2714 2711 2707 2704 2701 2697 2694 2691 2688 2685 2683 2680 2678 2677 2675 2673 2671 2670 2669 2667 2666 2665 2665 2665 2665 2666 2667 2669 2670 2672 2674 2675 2677 2678 2680 2682 2684
2774 2773 2771 2769 2768 2767 2765 2764 2762 2760 2758 2756 2753 2751 2748 2746 2743 2741 2738 2735 2733 2730 2727 2724 2720 2717 2713 2709 2706 2702 2698 2695 2691 2688 2685 2682 2679 2676 2674 2671 2669 2668 2666 2664 2662 2661 2659 2658 2658 2657 2657 2657 2658 2660 2661 2662 2664 2666 2668 2669 2671 2673 2675
2772 2770 2769 2768 2767 2766 2764 2763 2761 2759 2757 2755 2752 2750 2747 2745 2742 2740 2737 2735 2732 2729 2726 2723 2719 2716 2712 2708 2704 2701 2697 2693 2689 2685 2682 2679 2676 2673 2670 2667 2665 2663 2661 2659 2657 2655 2654 2652 2651 2651 2650 2650 2650 2651 2652 2653 2655 2657 2659 2660 2662 2664 2667